Starlink 31993

operational
NORAD ID: 59961 Int'l Des: 2024-107 Owner: SPXS Country: US Constellation: starlink
LEOCIRCULAR

About Starlink 31993

Description loading...

Live Position

Loading 3D Globe...

Upcoming Passes

Altitude History

Altitude vs Time

uPlot chart will show altitude changes over time

Two-Line Element Set

1 59961U 24107S 25306.24374588 .00001249 00000-0 54299-4 0 9990
2 59961 53.1615 297.5241 0001768 104.3594 255.7603 15.30190656 80227
Epoch: Nov 2, 2025 • Age: 14 hours

Current Status

Altitude 493.8 km
Velocity 7.62 km/s
Sub-Earth Point -50.78°S, 154.02°W
Launch Date Jun 5, 2024
Age 1.4 years
Type internet

Technical Details

Classification Payload
Mass 730.00 kg
Dry Mass 700.00 kg
Total Mass 730.00 kg
Length 0.30 m
Diameter 4.10 m
Span 29.00 m
Shape Box + pan
Manufacturer SPXS
Bus Type Starlink V2M
Phase Status In Orbit
Owner/State SPXS/US

Large Constellations

Loading constellations...